When you browse on this site, cookies collect data to enhance your experience and personalize the content and advertising you see.
Visit our Privacy Policy to learn more. By continuing to use the site, you agree to this use of cookies and data.
  • In Lithuania
  • List of Countries
  • For 7 days
  • Water Temperature
  • Weather Map
  • Weather Widgets
  • user-avatar
    Login

    Hourly Weather Bohumin

    Today, 24 February, Monday

    Time Temperature Precipitation Wind Pressure Humidity
    00:00 +6°C° 0.6 mm 10 mps 736 mmHg 71%
    01:00 +5°C° 0.6 mm 10 mps 737 mmHg 68%
    02:00 +3°C° 0 mm 10 mps 739 mmHg 69%
    03:00 +2°C° 0 mm 10 mps 740 mmHg 70%
    04:00 +1°C° 0 mm 11 mps 741 mmHg 70%
    05:00 +1°C° 0 mm 9 mps 742 mmHg 71%
    06:00 0°C° 0 mm 8 mps 743 mmHg 73%
    07:00 0°C° 0 mm 7 mps 745 mmHg 74%
    08:00 +2°C° 0 mm 6 mps 745 mmHg 71%
    09:00 +2°C° 0 mm 6 mps 745 mmHg 68%
    10:00 +3°C° 0 mm 5 mps 746 mmHg 65%
    11:00 +3°C° 0 mm 5 mps 746 mmHg 63%
    12:00 +5°C° 0 mm 5 mps 746 mmHg 60%
    13:00 +6°C° 0 mm 4 mps 746 mmHg 58%
    14:00 +6°C° 0 mm 4 mps 746 mmHg 59%
    15:00 +5°C° 0 mm 3 mps 745 mmHg 60%
    16:00 +5°C° 0 mm 3 mps 745 mmHg 61%
    17:00 +5°C° 0 mm 3 mps 745 mmHg 65%
    18:00 +4°C° 0 mm 3 mps 744 mmHg 69%
    19:00 +3°C° 0 mm 3 mps 744 mmHg 73%
    20:00 +3°C° 0 mm 4 mps 743 mmHg 72%
    21:00 +4°C° 0 mm 4 mps 742 mmHg 71%
    22:00 +3°C° 0 mm 5 mps 741 mmHg 70%
    23:00 +3°C° 0 mm 5 mps 740 mmHg 71%

    Tomorrow, 25 February, Tuesday

    Time Temperature Precipitation Wind Pressure Humidity
    00:00 +3°C° 0 mm 6 mps 739 mmHg 72%
    01:00 +4°C° 0 mm 7 mps 738 mmHg 73%
    02:00 +4°C° 0 mm 7 mps 738 mmHg 74%
    03:00 +5°C° 0 mm 7 mps 737 mmHg 76%
    04:00 +5°C° 0 mm 8 mps 736 mmHg 78%
    05:00 +5°C° 0.1 mm 8 mps 736 mmHg 78%
    06:00 +5°C° 0.1 mm 7 mps 736 mmHg 78%
    07:00 +6°C° 0.1 mm 7 mps 736 mmHg 79%
    08:00 +6°C° 0.2 mm 7 mps 736 mmHg 79%
    09:00 +6°C° 0.2 mm 7 mps 735 mmHg 79%
    10:00 +6°C° 0.2 mm 7 mps 735 mmHg 80%
    11:00 +6°C° 0.2 mm 7 mps 734 mmHg 80%
    12:00 +7°C° 0.2 mm 6 mps 734 mmHg 80%
    13:00 +8°C° 0.2 mm 6 mps 734 mmHg 80%
    14:00 +8°C° 0.2 mm 6 mps 733 mmHg 79%
    15:00 +8°C° 0.2 mm 5 mps 732 mmHg 79%
    16:00 +8°C° 0.2 mm 5 mps 732 mmHg 79%
    17:00 +7°C° 0.3 mm 5 mps 732 mmHg 80%
    18:00 +7°C° 0.3 mm 5 mps 732 mmHg 82%
    19:00 +7°C° 0.3 mm 6 mps 732 mmHg 83%
    20:00 +7°C° 0.5 mm 5 mps 732 mmHg 83%
    21:00 +7°C° 0.5 mm 5 mps 732 mmHg 82%
    22:00 +6°C° 0.5 mm 4 mps 731 mmHg 82%
    23:00 +7°C° 0.2 mm 3 mps 731 mmHg 81%

    Day after tomorrow, 26 February, Wednesday

    Time Temperature Precipitation Wind Pressure Humidity
    00:00 +6°C° 0.2 mm 2 mps 731 mmHg 80%
    01:00 +5°C° 0.2 mm 2 mps 731 mmHg 79%
    02:00 +5°C° 0 mm 2 mps 731 mmHg 79%
    03:00 +5°C° 0 mm 2 mps 731 mmHg 79%
    04:00 +4°C° 0 mm 2 mps 730 mmHg 80%
    05:00 +3°C° 0 mm 3 mps 730 mmHg 80%
    06:00 +3°C° 0 mm 3 mps 730 mmHg 79%
    07:00 +3°C° 0 mm 3 mps 730 mmHg 79%
    08:00 +3°C° 0 mm 4 mps 729 mmHg 75%
    09:00 +4°C° 0 mm 4 mps 729 mmHg 70%
    10:00 +5°C° 0 mm 5 mps 729 mmHg 66%
    11:00 +6°C° 0 mm 5 mps 729 mmHg 64%
    12:00 +6°C° 0 mm 5 mps 729 mmHg 62%
    13:00 +7°C° 0 mm 6 mps 729 mmHg 61%
    14:00 +5°C° 0.1 mm 6 mps 729 mmHg 60%
    15:00 +5°C° 0.1 mm 6 mps 729 mmHg 60%
    16:00 +5°C° 0.1 mm 6 mps 729 mmHg 59%
    17:00 +5°C° 0 mm 5 mps 729 mmHg 60%
    18:00 +4°C° 0 mm 4 mps 730 mmHg 61%
    19:00 +3°C° 0 mm 3 mps 730 mmHg 61%
    20:00 +3°C° 0 mm 3 mps 731 mmHg 63%
    21:00 +3°C° 0 mm 2 mps 731 mmHg 65%
    22:00 +2°C° 0 mm 2 mps 731 mmHg 67%
    23:00 +2°C° 0 mm 2 mps 731 mmHg 67%

    27 February, Thursday

    Time Temperature Precipitation Wind Pressure Humidity
    00:00 +1°C° 0 mm 3 mps 732 mmHg 68%
    01:00 +1°C° 0 mm 3 mps 732 mmHg 69%
    02:00 0°C° 0 mm 3 mps 732 mmHg 73%
    03:00 0°C° 0 mm 3 mps 733 mmHg 76%
    04:00 -1°C° 0 mm 4 mps 733 mmHg 80%
    05:00 0°C° 0.1 mm 3 mps 733 mmHg 81%
    06:00 0°C° 0.1 mm 3 mps 734 mmHg 83%
    07:00 0°C° 0.1 mm 3 mps 734 mmHg 84%
    08:00 0°C° 0.2 mm 3 mps 735 mmHg 80%
    09:00 0°C° 0.2 mm 4 mps 736 mmHg 77%
    10:00 +1°C° 0.2 mm 4 mps 736 mmHg 73%
    11:00 +1°C° 0.2 mm 5 mps 737 mmHg 69%
    12:00 +2°C° 0.2 mm 5 mps 737 mmHg 64%
    13:00 +3°C° 0.2 mm 5 mps 737 mmHg 60%
    14:00 +3°C° 0.1 mm 4 mps 737 mmHg 60%
    15:00 +3°C° 0.1 mm 4 mps 737 mmHg 59%
    16:00 +3°C° 0.1 mm 3 mps 737 mmHg 59%
    17:00 +3°C° 0.1 mm 2 mps 737 mmHg 64%
    18:00 +3°C° 0.1 mm 2 mps 737 mmHg 70%
    19:00 +3°C° 0.1 mm 1 mps 737 mmHg 75%
    20:00 +3°C° 0 mm 1 mps 737 mmHg 76%
    21:00 +2°C° 0 mm 1 mps 737 mmHg 78%
    22:00 +1°C° 0 mm 2 mps 737 mmHg 79%
    23:00 +1°C° 0 mm 2 mps 736 mmHg 78%

    28 February, Friday

    Time Temperature Precipitation Wind Pressure Humidity
    00:00 +1°C° 0 mm 2 mps 736 mmHg 76%
    01:00 +1°C° 0 mm 2 mps 735 mmHg 75%
    02:00 +1°C° 0 mm 2 mps 734 mmHg 73%
    03:00 +1°C° 0 mm 2 mps 733 mmHg 72%
    04:00 +1°C° 0 mm 2 mps 733 mmHg 71%
    05:00 0°C° 0 mm 3 mps 732 mmHg 72%
    06:00 0°C° 0 mm 3 mps 732 mmHg 73%
    07:00 -1°C° 0 mm 4 mps 731 mmHg 74%
    08:00 0°C° 0.2 mm 5 mps 731 mmHg 78%
    09:00 +1°C° 0.2 mm 5 mps 731 mmHg 81%
    10:00 +1°C° 0.2 mm 6 mps 731 mmHg 85%
    11:00 +2°C° 0.2 mm 6 mps 731 mmHg 82%
    12:00 +3°C° 0.2 mm 7 mps 732 mmHg 79%
    13:00 +3°C° 0.2 mm 7 mps 733 mmHg 76%
    14:00 +3°C° 0.1 mm 6 mps 733 mmHg 76%
    15:00 +2°C° 0.1 mm 5 mps 734 mmHg 75%
    16:00 +3°C° 0.1 mm 4 mps 735 mmHg 74%
    17:00 +2°C° 0 mm 3 mps 735 mmHg 78%
    18:00 +3°C° 0 mm 2 mps 736 mmHg 81%
    19:00 +3°C° 0 mm 1 mps 736 mmHg 84%
    20:00 +3°C° 0 mm 1 mps 736 mmHg 85%
    21:00 +3°C° 0 mm 1 mps 736 mmHg 86%
    22:00 +2°C° 0 mm 2 mps 736 mmHg 86%
    23:00 +2°C° 0 mm 2 mps 735 mmHg 86%

    29 February, Saturday

    Time Temperature Precipitation Wind Pressure Humidity
    00:00 +2°C° 0 mm 2 mps 735 mmHg 86%
    01:00 +2°C° 0 mm 2 mps 734 mmHg 86%
    02:00 +3°C° 0.2 mm 2 mps 733 mmHg 88%
    03:00 +3°C° 0.2 mm 3 mps 732 mmHg 89%
    04:00 +3°C° 0.2 mm 3 mps 731 mmHg 91%
    05:00 +4°C° 0.1 mm 3 mps 731 mmHg 90%
    06:00 +4°C° 0.1 mm 3 mps 730 mmHg 90%
    07:00 +4°C° 0.1 mm 4 mps 729 mmHg 89%
    08:00 +5°C° 0.2 mm 4 mps 729 mmHg 86%
    09:00 +6°C° 0.2 mm 4 mps 728 mmHg 83%
    10:00 +6°C° 0.2 mm 5 mps 728 mmHg 81%
    11:00 +7°C° 0.3 mm 6 mps 728 mmHg 80%
    12:00 +6°C° 0.3 mm 7 mps 727 mmHg 80%
    13:00 +7°C° 0.3 mm 8 mps 727 mmHg 79%
    14:00 +6°C° 1.3 mm 7 mps 727 mmHg 81%
    15:00 +5°C° 1.3 mm 7 mps 727 mmHg 82%
    16:00 +5°C° 1.3 mm 7 mps 727 mmHg 84%
    17:00 +5°C° 0.9 mm 6 mps 727 mmHg 78%
    18:00 +4°C° 0.9 mm 6 mps 728 mmHg 73%
    19:00 +5°C° 0.9 mm 5 mps 728 mmHg 68%
    20:00 +4°C° 0 mm 4 mps 728 mmHg 67%
    21:00 +4°C° 0 mm 4 mps 729 mmHg 66%
    22:00 +4°C° 0 mm 4 mps 729 mmHg 65%
    23:00 +3°C° 0 mm 4 mps 729 mmHg 68%
    Show more